Regional Weather Roundup
Issued by NWS

Home | Current Version | Previous Version | Text Only | Print | Product List | Glossary On
Versions: 1 2 3 4 5 6 7 8 9 10 11 12 13 14 15 16 17 18 19 20 21 22 23 24 25 26 27 28 29 30 31 32 33 34 35 36 37 38 39 40 41 42 43 44 45 46 47 48 49 50
631
ASUS43 KMPX 211401
RWRMN
WEATHER ROUNDUP FOR MINNESOTA
NATIONAL WEATHER SERVICE TWIN CITIES/CHANHASSEN MN
800 AM CST SAT JAN 21 2017


NOTE: "FAIR" INDICATES FEW OR NO CLOUDS BELOW 12,000 FEET WITH NO
SIGNIFICANT WEATHER AND/OR OBSTRUCTIONS TO VISIBILITY. N/A MEANS
CURRENT SKY AND/OR WEATHER CONDITIONS ARE NOT AVAILABLE.

MNZ060>063-068>070-211500-
   Twin Cities Metro

CITY           SKY/WX    TMP DP  RH WIND       PRES   REMARKS
TWIN CITIES    CLOUDY    35  33  92 NE8       29.42F FOG     WCI  29
ST PAUL        CLOUDY    35  35 100 E5        29.44F WCI  31
CRYSTAL        CLOUDY    35  32  88 E6        29.42S FOG     WCI  30
BLAINE         CLOUDY    36  36 100 E6        29.43S FOG
LAKEVILLE      RAIN      32  32 100 E7        29.41S VSB 3/4 WCI  26
EDEN PRAIRIE   CLOUDY    36  34  92 NE8       29.40F FOG
SOUTH ST PAUL  CLOUDY    35  35  99 E6        29.43S FOG     WCI  30
LAKE ELMO      MIX PCPN  34  34 100 NE6       29.44F WCI  29
$$
MNZ001>005-007-008-013>017-022>024-027-028-211500-
   Northwest Minnesota

CITY           SKY/WX    TMP DP  RH WIND       PRES   REMARKS
BEMIDJI        CLOUDY    32  32 100 E8        29.44F FOG     WCI  25
HALLOCK        CLOUDY    36  36 100 E8        29.43R
ROSEAU         CLOUDY    36  30  80 SE7       29.45S
WARROAD        DRIZZLE   34  30  86 E6        29.47R WCI  29
THIEF RVR FALL MOCLDY    34  33  96 SE12      29.44R WCI  25
CROOKSTON      CLOUDY    36  34  93 SE9       29.43R
FOSSTON        CLOUDY    34  32  93 E10       29.43S WCI  26
DETROIT LAKES  DRIZZLE   34  34 100 E5        29.42S WCI  30
MOORHEAD       CLOUDY    36  34  93 E6        29.40S
PARK RAPIDS    FOG       34  32  92 E7        29.42F VSB 3/4 WCI  28
MAHNOMEN       CLOUDY    34  32  94 E8        29.41S WCI  27
$$
MNZ006-009>011-018-025>026-211500-
   North Central Minnesota

CITY           SKY/WX    TMP DP  RH WIND       PRES   REMARKS
BAUDETTE       CLOUDY    33  33 100 SE9       29.47S FOG     WCI  25
FLAG ISLAND    FOG       34  32  93 SE7       29.48R VSB 1   WCI  28
INTL FALLS     CLOUDY    33  32  96 SE8       29.50S FOG     WCI  26
WASKISH        CLOUDY    34  34 100 E7        29.47S WCI  28
BIG FORK       CLOUDY    34  34 100 SE3       29.48F
LONGVILLE      CLOUDY    34  34 100 CALM      29.44F FOG
GRAND RAPIDS   LGT RAIN  33  32  96 E5        29.48F VSB 1/2 WCI  29
CRANE LAKE     CLOUDY    32  32 100 CALM      29.53F
ORR            CLOUDY    34  30  86 CALM      29.48S FOG
COOK           CLOUDY    34  34 100 CALM      29.50F FOG
WALKER         FOG       32  32 100 E5        29.45S VSB 1   WCI  27
$$
MNZ012-019>021-037-211500-
   Northeast Minnesota

CITY           SKY/WX    TMP DP  RH WIND       PRES   REMARKS
DULUTH         DRZL/FOG  34  34 100 E6        29.48F VSB 1/16WCI  29
ELY            CLOUDY    34  34 100 CALM      29.51S FOG
HIBBING        FOG       32  32 100 E6        29.48F VSB 1   WCI  26
EVELETH        FOG       34  33  98 CALM      29.50F VSB 1/2
DULUTH HARBOR  CLOUDY    34  34 100 NE9       29.51F WCI  26
TWO HARBORS    HAZE      37  32  81 E5        29.49F VSB<1/4
SILVER BAY     FOG       36  36 100 NE3       29.50F VSB 1/2
GRAND MARAIS     N/A     37  36  96 E6        29.57S
G MARAIS ARPRT MIX PCPN  30  28  93 CALM      29.53F VSB 1/4
$$
MNZ029>031-032-039>041-046>048-054>057-064-211500-
   West Central Minnesota

CITY           SKY/WX    TMP DP  RH WIND       PRES   REMARKS
FERGUS FALLS   CLOUDY    36  36 100 E7        29.43S
WHEATON        MIX PCPN  41  41 100 SE9       29.40S
MORRIS         FOG       34  34 100 E13       29.38S VSB 1   WCI  25
ALEXANDRIA     CLOUDY    33  33 100 E13       29.41R FOG     WCI  24
ELBOW LAKE     CLOUDY    33  33  99 SE14      29.39S FOG     WCI  23
WADENA         DRIZZLE   32  32 100 E7        29.42S WCI  26
GLENWOOD       FOG       34  34 100 E9        29.41R VSB 3/4 WCI  26
APPLETON       FOG       36  34  93 E7        29.38F VSB 3/4
BENSON         CLOUDY    36  32  87 SE8       29.40S
ORTONVILLE     FOG       34  30  86 CALM      29.37S VSB 1
MADISON        CLOUDY    36  36 100 E7        29.37S FOG
WILLMAR        FOG       36  36 100 E8        29.41S VSB 1/2
$$
MNZ033>034-036-042>043-049>051-058-059-211500-
   Central Minnesota

CITY           SKY/WX    TMP DP  RH WIND       PRES   REMARKS
ST CLOUD       FOG       33  33 100 NE6       29.42F VSB 1/4 WCI  28
SAUK CENTRE    FOG       32  32 100 E8        29.41F VSB 1/4 WCI  25
PAYNESVILLE    SNOW      33  33 100 E6        29.41F VSB 1/2 WCI  28
AITKIN         FOG       36  32  87 E5        29.44S VSB 1/2
PINE RIVER     CLOUDY    34  34 100 E5        29.48F FOG     WCI  30
BRAINERD       FOG       33  33 100 E5        29.44F VSB 1/2 WCI  29
STAPLES        FOG       32  32 100 E3        29.43S VSB 3/4
LONG PRAIRIE   SNOW      32  32 100 NE8       29.42S VSB 1/2 WCI  25
LITTLE FALLS   FOG       32  32 100 E3        29.44S VSB 1
LITCHFIELD     DRZL/FOG  36  36 100 E6        29.41F VSB 3/4
BUFFALO        CLOUDY    34  33  96 NE10      29.43S FOG     WCI  26
MAPLE LAKE     CLOUDY    35  35 100 MISG      29.43S FOG
HUTCHINSON     DRIZZLE   35  35 100 NE7       29.41S WCI  29
$$
MNZ037-044-045-052-053-211500-
   East Central Minnesota

CITY           SKY/WX    TMP DP  RH WIND       PRES   REMARKS
PRINCETON      FOG       36  34  93 NE3       29.44F VSB 3/4
MORA           CLOUDY    32  32 100 E3        29.47S FOG
CAMBRIDGE      MIX PCPN  36  36 100 CALM      29.43S
RUSH CITY      CLOUDY    34  32  93 NE6       29.45F FOG     WCI  29
MOOSE LAKE     CLOUDY    34  32  93 CALM      29.45F FOG
HINCKLEY       FOG       34  34 100 E5        29.46F VSB 1/2 WCI  30
CLOQUET        FOG       34  34 100 E3        29.47F VSB 1/4
MCGREGOR       CLOUDY    34  32  93 E6        29.46F VSB 1/2 WCI  29
$$
MNZ071>073-080-081-089-090-097-098-211500-
   Southwest Minnesota

CITY           SKY/WX    TMP DP  RH WIND       PRES   REMARKS
MONTEVIDEO     CLOUDY    34  34 100 SE12      29.39F FOG     WCI  25
GRANITE FALLS  FOG       35  35  99 E7        29.39S VSB 1/4 WCI  29
CANBY          FOG       34  34 100 CALM      29.37R VSB 3/4
MARSHALL       FOG       33  33 100 SE8       29.37S VSB 1   WCI  26
REDWOOD FALLS  FOG       34  33  96 E7        29.38F VSB 1/2 WCI  28
OLIVIA         FOG       34  34 100 E8        29.38F VSB 1   WCI  27
PIPESTONE      FOG       36  36 100 SE6       29.34R VSB 1/4
WINDOM         FOG       34  34 100 CALM      29.37R VSB 1/4
WORTHINGTON    FOG       33  33 100 SE6       29.36  VSB 1/4 WCI  28
JACKSON        FOG       32  32 100 CALM      29.37S VSB<1/4
TRACY          CLOUDY    34  34 100 SE5       29.36F FOG     WCI  30
SLAYTON        FOG       32  32 100 SE6       29.36S VSB 1/4 WCI  27
$$
MNZ065>067-074>077-082>085-091>093-211500-
   South Central Minnesota

CITY           SKY/WX    TMP DP  RH WIND       PRES   REMARKS
MANKATO        LGT RAIN  35  34  96 E5        29.40S WCI  31
NEW ULM        CLOUDY    34  34 100 E3        29.39S FOG
ST JAMES       DRZL/FOG  34  34 100 E3        29.40R VSB 3/4
FAIRMONT       FOG       34  33  96 CALM      29.38S VSB 1/4
GLENCOE        DRIZZLE   35  35 100 E5        29.40S WCI  31
OWATONNA       DRIZZLE   36  34  93 E7        29.39S
WASECA         CLOUDY    34  34 100 E6        29.40S FOG     WCI  29
ALBERT LEA     DRIZZLE   36  36 100 S3        29.37S
$$
MNZ078>079-086>088-094>096-211500-
   Southeast Minnesota

CITY           SKY/WX    TMP DP  RH WIND       PRES   REMARKS
ROCHESTER      FOG       34  34 100 E7        29.39F VSB 3/4 WCI  28
RED WING       LGT RAIN  36  34  93 E7        29.42F
STANTON        LGT RAIN  35  33  94 CALM      29.40S VSB 3/4
DODGE CENTER   DRIZZLE   34  34 100 CALM      29.38F
WINONA         CLOUDY    36  36 100 S3        29.44S FOG
AUSTIN         LGT RAIN  34  34 100 E6        29.38S WCI  29
PRESTON        FOG       34  33  97 E6        29.40S VSB 3/4 WCI  29
$$
ABBREVIATIONS USED IN REMARKS
   TC - TEMPERATURES IN CELSIUS
  WCI - WIND CHILL INDEX
   HX - HEAT INDEX
  VSB - VISIBILITY
$$




USA.gov is the U.S. government's official web portal to all federal, state and local government web resources and services.